[[{"header":{"parameterUnit":"m.s-1","parameterCategory":1,"la1":30.2991,"la2":30.254,"lo1":-89.0895,"lo2":-89.0444,"dy":0.0017,"dx":0.0017,"nx":28,"ny":28,"refTime":"2025-01-18T09:00:00:Z","depth":0,"parameterNumber":2,"parameterNumberName":"U-component_of_WINDS"},"data":[0,0,0,0,0,0,0,0,0,0,0,0,0,0,0,0,0,0,0,0,0,0,0,0,0,0,0,0,0,0,0,0,0,0,0,0,0,0,0,0,0,0,0,0,0,0,0,0,0,0,0,0,0,0,0,0,0,0,2.9334,2.9334,0,2.9364,2.9364,2.9365,2.9347,2.9346,2.9345,2.9344,2.9374,2.9376,2.9377,0,0,0,0,0,0,0,0,0,0,0,0,0,2.9261,2.9263,2.9334,2.9334,2.9334,2.9364,2.9364,2.9365,2.9347,2.9346,2.9345,2.9344,2.9374,2.9376,2.9378,0,0,0,0,0,0,0,0,0,0,0,0,0,2.9292,2.9263,2.9334,2.9329,2.9329,2.9364,2.9364,2.9365,2.9347,2.9346,2.9345,2.9343,2.9373,2.9376,2.9378,2.9418,0,0,2.9385,2.9386,0,0,0,0,0,0,0,0,2.9291,2.9295,2.9329,2.9329,2.9329,2.935,2.935,2.9383,2.9347,2.934,2.9344,2.9343,2.9367,2.937,2.9379,2.942,2.9421,2.9385,2.9387,2.9388,2.9389,0,0,0,0,0,0,0,2.9288,2.9294,2.9346,2.933,2.933,2.9326,2.9329,2.9356,2.9361,2.9341,2.934,2.9343,2.9367,2.9376,2.9379,2.9422,2.9385,2.9387,2.9389,2.939,2.95,2.9501,0,0,0,0,0,0,2.9287,2.9292,2.9345,2.9346,2.9306,2.9328,2.9332,2.9345,2.936,2.9361,2.9344,2.9342,2.9373,2.9376,2.938,2.943,2.9388,2.939,2.9392,2.9498,2.95,2.9502,0,0,0,0,0,0,2.9285,2.9291,2.9343,2.9319,2.9325,2.9331,2.9346,2.9346,2.9355,2.9363,2.9364,2.9353,2.9372,2.9377,2.941,2.9431,2.9391,2.9393,2.9497,2.9499,2.9501,2.9529,0,0,0,0,0,0,2.9283,2.9291,2.9306,2.9319,2.9327,2.9372,2.9347,2.9348,2.936,2.9357,2.9371,2.9372,2.9371,2.9406,2.9412,2.9433,2.9395,2.9495,2.9498,2.95,2.9526,2.9532,2.9536,0,0,0,0,0,2.9281,2.9312,2.9307,2.9313,2.9345,2.9373,2.9377,2.9376,2.9361,2.9377,2.9382,2.9372,2.9428,2.941,2.9416,2.9438,2.9493,2.9497,2.95,2.9524,2.953,2.9536,0,0,0,0,0,0,2.93,2.9313,2.9308,2.9345,2.9358,2.937,2.9389,2.9383,2.94,2.9397,2.9395,2.9398,2.9432,2.9439,2.9418,2.948,2.9458,2.9463,2.9474,2.9481,2.9486,2.9483,2.9397,0,0,0,0,0,2.9309,2.933,2.9341,2.9372,2.9379,2.9383,2.9395,2.9393,2.9407,2.9412,2.942,2.9434,2.9454,2.9468,2.9487,2.9527,2.9531,2.9546,2.9551,2.9555,2.9559,2.9583,2.959,2.9513,2.9513,2.9513,0,0,2.9326,2.9337,2.935,2.9376,2.9386,2.9409,2.9388,2.9412,2.9429,2.9416,2.9448,2.9454,2.9469,2.9506,2.9523,2.9513,2.9582,2.956,2.9563,2.9565,2.9587,2.9594,2.9601,2.9515,2.9515,2.9514,0,0,2.937,2.938,2.9408,2.9419,2.9435,2.9438,2.9445,2.9459,2.9463,2.9495,2.9486,2.9506,2.9542,2.9553,2.9564,2.9616,2.9607,2.9622,2.9649,2.9672,2.9678,2.9684,2.9703,2.971,2.9626,2.9626,2.9626,0,2.939,2.9424,2.9423,2.9449,2.9461,2.9451,2.948,2.9491,2.9512,2.9521,2.951,2.9555,2.9565,2.9605,2.9618,2.9627,2.9635,2.962,2.9677,2.9683,2.9688,2.9706,2.9713,2.9628,2.9628,2.9628,2.9628,0,2.9448,2.9472,2.9492,2.9515,2.953,2.9557,2.956,2.9576,2.9573,2.9578,2.9612,2.9623,2.9645,2.9655,2.9652,2.9696,2.9689,2.9678,2.9656,2.9697,2.9714,2.9721,2.9631,2.963,2.9629,2.9629,0,0,2.9503,2.9526,2.9534,2.9545,2.9563,2.9581,2.9609,2.9632,2.9645,2.9661,2.9685,2.9716,2.9707,2.9719,2.9717,2.9737,2.9779,2.9724,2.9724,2.9734,2.9829,2.9838,2.9846,2.9774,2.9776,2.9777,2.9828,0,2.9549,2.9596,2.9598,2.9642,2.9665,2.9657,2.9681,2.9696,2.9701,2.9722,2.9728,2.9751,2.9736,2.9743,2.9763,2.977,2.9798,2.9766,2.9796,2.9797,2.9792,2.9855,2.9863,2.9911,2.9835,2.9836,2.9837,0,2.9607,2.9627,2.9673,2.969,2.97,2.9722,2.9744,2.9763,2.978,2.9783,2.9798,2.9794,2.9823,2.9802,2.9843,2.9821,2.9834,2.9839,2.9841,2.9844,2.9819,2.9859,2.9927,2.9934,2.9847,2.9847,2.9846,0,2.9644,2.9681,2.9714,2.9724,2.9744,2.976,2.9769,2.9785,2.9799,2.9819,2.9828,2.9851,2.9863,2.9881,2.9884,2.9868,2.9925,2.9904,2.9929,2.9929,2.994,2.9939,3.0011,2.9949,2.9949,2.9949,2.9948,0,2.9694,2.9723,2.9731,2.9751,2.9784,2.9786,2.9819,2.9827,2.9841,2.9864,2.9859,2.988,2.9883,2.9905,2.9908,2.9942,2.9948,2.9951,2.9951,2.9951,2.9951,2.9959,2.9956,2.9951,2.995,2.995,2.9949,0,2.9739,2.9746,2.9782,2.9799,2.9804,2.9828,2.9843,2.9863,2.9869,2.9898,2.9905,2.9914,2.9941,2.9946,2.9977,2.9979,3.0019,3.0016,3.0014,3.0013,3.0038,3.0036,3.0117,3.0129,3.0059,3.006,3.006,0,2.9771,2.9793,2.9814,2.9829,2.9839,2.9863,2.9878,2.9882,2.9898,2.992,2.9938,2.9964,2.9985,3.0027,3.0037,3.0061,3.0059,3.0086,3.0062,3.0062,3.006,3.0058,3.0061,3.009,3.0091,3.0091,3.0092,0,2.9827,2.9829,2.9851,2.9875,2.9894,2.9913,2.993,2.9943,2.9949,2.9968,2.9995,3.0011,3.0044,3.007,3.0095,3.0105,3.01,3.01,3.0107,3.0107,3.0104,3.0107,3.0026,3.0097,3.0097,3.0096,3.0096,3.0096,2.9866,2.9887,2.9905,2.993,2.9944,2.9962,2.9982,2.9992,3.0014,3.0041,3.0042,3.0072,3.0091,3.0124,3.0136,3.016,3.0151,3.0161,3.0164,3.0166,3.0169,3.0101,3.0164,3.0164,3.0164,3.0164,3.0164,0,2.9922,2.9934,2.9957,2.9983,3.0004,2.9998,3.0019,3.0036,3.0063,3.008,3.0102,3.0134,3.016,3.0173,3.0199,3.0216,3.0215,3.0223,3.0222,3.0224,3.0175,3.0166,3.0224,3.0224,3.0224,3.0224,3.0224,3.0224,2.9953,2.9988,2.9993,3.0035,3.0047,3.0077,3.0089,3.0106,3.012,3.0157,3.0179,3.0187,3.0204,3.0231,3.0256,3.0259,3.0269,3.0278,3.028,3.0234,3.0227,3.0222,3.0214,3.028,3.028,3.0328,3.0328,3.0329]},{"header":{"parameterUnit":"m.s-1","parameterCategory":1,"la1":30.2991,"la2":30.254,"lo1":-89.0895,"lo2":-89.0444,"dy":0.0017,"dx":0.0017,"nx":28,"ny":28,"refTime":"2025-01-18T09:00:00:Z","depth":0,"parameterNumber":3,"parameterNumberName":"V-component_of_WINDS"},"data":[0,0,0,0,0,0,0,0,0,0,0,0,0,0,0,0,0,0,0,0,0,0,0,0,0,0,0,0,0,0,0,0,0,0,0,0,0,0,0,0,0,0,0,0,0,0,0,0,0,0,0,0,0,0,0,0,0,0,-8.3746,-8.3747,0,-8.3907,-8.3909,-8.3911,-8.388,-8.3877,-8.3874,-8.3871,-8.403,-8.4037,-8.4044,0,0,0,0,0,0,0,0,0,0,0,0,0,-8.3406,-8.3413,-8.3745,-8.3748,-8.375,-8.3907,-8.3909,-8.3911,-8.388,-8.3877,-8.3873,-8.387,-8.4028,-8.4036,-8.4045,0,0,0,0,0,0,0,0,0,0,0,0,0,-8.3559,-8.3415,-8.3745,-8.3753,-8.3756,-8.3906,-8.3909,-8.3912,-8.3881,-8.3877,-8.3872,-8.3868,-8.4025,-8.4036,-8.4046,-8.4197,0,0,-8.4078,-8.4082,0,0,0,0,0,0,0,0,-8.3551,-8.3572,-8.375,-8.3753,-8.3756,-8.3869,-8.3848,-8.4007,-8.3882,-8.3833,-8.3871,-8.3866,-8.398,-8.3994,-8.4033,-8.4204,-8.4211,-8.4078,-8.4085,-8.4089,-8.4092,0,0,0,0,0,0,0,-8.354,-8.3564,-8.3809,-8.3753,-8.3756,-8.3747,-8.3764,-8.3878,-8.3929,-8.3837,-8.3835,-8.3855,-8.398,-8.4023,-8.4037,-8.4213,-8.4078,-8.4087,-8.4094,-8.4098,-8.4519,-8.4524,0,0,0,0,0,0,-8.3527,-8.3556,-8.3804,-8.3814,-8.3641,-8.3757,-8.3776,-8.3837,-8.3927,-8.3937,-8.3859,-8.3853,-8.4008,-8.4025,-8.4042,-8.4227,-8.4089,-8.4099,-8.4105,-8.4514,-8.452,-8.4526,0,0,0,0,0,0,-8.352,-8.355,-8.3798,-8.3685,-8.3716,-8.3768,-8.3836,-8.3842,-8.3885,-8.3944,-8.3952,-8.3893,-8.4005,-8.4028,-8.416,-8.4232,-8.4104,-8.4113,-8.4508,-8.4516,-8.4523,-8.4597,0,0,0,0,0,0,-8.3511,-8.3547,-8.3606,-8.3686,-8.3722,-8.3914,-8.3841,-8.3849,-8.3904,-8.3898,-8.3979,-8.3988,-8.4003,-8.4144,-8.417,-8.4244,-8.4121,-8.4502,-8.4512,-8.4521,-8.4588,-8.4606,-8.4621,0,0,0,0,0,-8.3499,-8.3618,-8.3609,-8.3639,-8.3797,-8.3918,-8.3938,-8.3955,-8.391,-8.3969,-8.4007,-8.3985,-8.422,-8.4158,-8.4187,-8.4265,-8.4498,-8.4509,-8.452,-8.4581,-8.4602,-8.462,0,0,0,0,0,0,-8.3543,-8.3629,-8.362,-8.3769,-8.3837,-8.3913,-8.3987,-8.3977,-8.4057,-8.4048,-8.4065,-8.4083,-8.4218,-8.4254,-8.4184,-8.4417,-8.4352,-8.437,-8.4389,-8.441,-8.4426,-8.4414,-8.413,0,0,0,0,0,-8.357,-8.3663,-8.3733,-8.3858,-8.3893,-8.3935,-8.3988,-8.3996,-8.4066,-8.4093,-8.4141,-8.4208,-8.4297,-8.4355,-8.444,-8.4593,-8.4611,-8.4661,-8.4678,-8.4691,-8.4706,-8.4791,-8.4815,-8.4562,-8.4562,-8.4562,0,0,-8.3627,-8.3686,-8.3743,-8.3869,-8.3922,-8.4017,-8.3959,-8.4061,-8.4132,-8.4108,-8.4237,-8.4275,-8.435,-8.4494,-8.456,-8.4529,-8.478,-8.4705,-8.4715,-8.4723,-8.4805,-8.4829,-8.485,-8.457,-8.4568,-8.4567,0,0,-8.378,-8.3834,-8.3945,-8.4001,-8.4083,-8.4111,-8.4138,-8.4216,-8.4241,-8.4371,-8.4356,-8.4439,-8.4592,-8.4648,-8.4696,-8.4874,-8.4857,-8.49,-8.4986,-8.5069,-8.5089,-8.5107,-8.5172,-8.5195,-8.4915,-8.4915,-8.4915,0,-8.384,-8.3984,-8.4003,-8.4109,-8.4165,-8.4151,-8.4264,-8.4316,-8.4421,-8.446,-8.4424,-8.4618,-8.4668,-8.4826,-8.487,-8.4908,-8.494,-8.4891,-8.5085,-8.5103,-8.512,-8.5182,-8.5206,-8.492,-8.492,-8.4919,-8.4919,0,-8.4055,-8.4155,-8.4235,-8.4341,-8.4406,-8.4514,-8.4549,-8.4612,-8.4615,-8.4646,-8.478,-8.484,-8.4938,-8.4976,-8.4978,-8.5135,-8.5113,-8.5081,-8.5016,-8.5149,-8.5207,-8.5231,-8.4927,-8.4925,-8.4924,-8.4923,0,0,-8.4238,-8.4355,-8.4384,-8.4433,-8.4525,-8.4602,-8.471,-8.4809,-8.4864,-8.4937,-8.5028,-8.516,-8.5132,-8.5187,-8.5195,-8.5269,-8.5408,-8.5228,-8.523,-8.526,-8.5586,-8.561,-8.5637,-8.5397,-8.5402,-8.5405,-8.558,0,-8.44,-8.4594,-8.4615,-8.4787,-8.4881,-8.4871,-8.4965,-8.5031,-8.5064,-8.5147,-8.5182,-8.5276,-8.5231,-8.5265,-8.5336,-8.5376,-8.5473,-8.5363,-8.5482,-8.5486,-8.5464,-8.5667,-8.5692,-8.5854,-8.5603,-8.5606,-8.5609,0,-8.4615,-8.4699,-8.4881,-8.4963,-8.5003,-8.5087,-8.5181,-8.5261,-8.5336,-8.5354,-8.5418,-8.5418,-8.5529,-8.546,-8.5614,-8.5539,-8.5588,-8.5615,-8.5622,-8.5634,-8.5556,-8.5685,-8.5906,-8.593,-8.5645,-8.5642,-8.564,0,-8.4732,-8.489,-8.5021,-8.5062,-8.516,-8.522,-8.5263,-8.5334,-8.5393,-8.5474,-8.5513,-8.5605,-8.5655,-8.5726,-8.5751,-8.5698,-8.5904,-8.5836,-8.5922,-8.5922,-8.5966,-8.5963,-8.6198,-8.5997,-8.5997,-8.5996,-8.5996,0,-8.4912,-8.5024,-8.5075,-8.5155,-8.5281,-8.5305,-8.5428,-8.5468,-8.5532,-8.5619,-8.5614,-8.5696,-8.5724,-8.581,-8.5829,-8.5955,-8.5977,-8.5995,-8.5999,-8.5996,-8.5994,-8.6029,-8.6019,-8.6003,-8.6001,-8.6,-8.5999,0,-8.5064,-8.5102,-8.5244,-8.5327,-8.535,-8.5439,-8.5509,-8.5586,-8.5618,-8.5729,-8.5756,-8.5806,-8.5908,-8.594,-8.6061,-8.6075,-8.6222,-8.6215,-8.6197,-8.6198,-8.6283,-8.6275,-8.6549,-8.6587,-8.636,-8.6362,-8.6364,0,-8.5176,-8.5263,-8.5356,-8.5416,-8.5462,-8.5557,-8.5619,-8.5645,-8.5709,-8.5803,-8.5869,-8.597,-8.6053,-8.6215,-8.6261,-8.6355,-8.6351,-8.6441,-8.6365,-8.636,-8.6354,-8.6349,-8.6358,-8.6455,-8.6457,-8.6459,-8.6461,0,-8.5372,-8.5388,-8.5477,-8.5575,-8.5649,-8.5726,-8.58,-8.5849,-8.5886,-8.5958,-8.6064,-8.6128,-8.6254,-8.6355,-8.6451,-8.6493,-8.6484,-8.6485,-8.651,-8.6508,-8.6495,-8.6505,-8.6238,-8.6478,-8.6477,-8.6475,-8.6474,-8.6474,-8.5509,-8.5586,-8.5665,-8.5765,-8.5825,-8.5895,-8.5973,-8.6017,-8.6106,-8.6213,-8.6223,-8.6337,-8.6411,-8.6539,-8.6587,-8.6676,-8.665,-8.6686,-8.6695,-8.6704,-8.6712,-8.6481,-8.6693,-8.6693,-8.6692,-8.6692,-8.6692,0,-8.5705,-8.5756,-8.5849,-8.5955,-8.6034,-8.6021,-8.6104,-8.617,-8.6272,-8.6343,-8.6426,-8.6548,-8.6646,-8.6702,-8.68,-8.6861,-8.6859,-8.6886,-8.6882,-8.6892,-8.6728,-8.6698,-8.6886,-8.6886,-8.6886,-8.6886,-8.6885,-8.6885,-8.5817,-8.5949,-8.5974,-8.6136,-8.6185,-8.6299,-8.6348,-8.6413,-8.647,-8.6608,-8.6691,-8.6727,-8.6793,-8.6896,-8.6986,-8.6999,-8.7036,-8.7066,-8.7077,-8.6923,-8.6903,-8.6884,-8.6855,-8.7074,-8.7074,-8.7233,-8.7235,-8.7236]}]]